Location: Newark
(12.4436°N, 0.6167°W)
Time: 19:43:55
(UTC+00:00)

deb Explorer IX - Pass Details

Date: 16 December 2019
Orbit: 548 x 1101 km, 38.8° (Epoch: 21 January)

Event Time Altitude Azimuth Distance (km) Brightness Sun altitude
Rises 23:04:08 0° 277° (W) 3,873 - -73.2°
Reaches altitude 10° 23:08:19 10° 254° (WSW) 2,946 - -73.9°
Maximum altitude 23:12:03 15° 223° (SW) 2,608 - -74.6°
Drops below altitude 10° 23:15:47 10° 192° (SSW) 2,920 - -75.2°
Sets 23:19:56 0° 169° (S) 3,816 - -75.8°
